[Iaude] MPEC F65: 2022 FO1 [a=1.63,e=0.35,i=26.4,H=24.5]

mpec at marsden.cfa.harvard.edu mpec at marsden.cfa.harvard.edu
Fri Mar 25 21:11:30 EDT 2022


M.P.E.C. 2022-F65                                Issued 2022 March 26, 01:09 UT

     The Minor Planet Electronic Circulars contain information on unusual
         minor planets and routine data on comets.  They are published
    on behalf of Division F of the International Astronomical Union by the
          Minor Planet Center, Smithsonian Astrophysical Observatory,
                          Cambridge, MA 02138, U.S.A.

             Prepared using the Tamkin Foundation Computer Network

                              MPC at CFA.HARVARD.EDU
            URL https://www.minorplanetcenter.net/    ISSN 1523-6714

                                    2022 FO1                                    


Observations:
     K22F01O* C2022 03 25.02630 13 10 03.75 +12 03 32.2          19.7 RoEF065K88
     K22F01O  C2022 03 25.02827 13 10 02.80 +12 03 02.2          19.7 RoEF065K88
     K22F01O  C2022 03 25.03024 13 10 01.92 +12 02 31.6          19.2 RoEF065K88
     K22F01O KC2022 03 25.04186 13 09 56.42 +11 59 34.7          19.6 RoEF065K88
     K22F01O KC2022 03 25.04590 13 09 54.58 +11 58 32.3          19.4 RoEF065K88
     K22F01O KC2022 03 25.04969 13 09 52.77 +11 57 35.4          19.5 RoEF065K88
     K22F01O KC2022 03 25.05373 13 09 50.91 +11 56 34.0          19.4 RoEF065K88
     K22F01O KC2022 03 25.06791913 09 45.82 +11 52 52.5          20.0 GVEF065J95
     K22F01O KC2022 03 25.07427313 09 42.80 +11 51 16.4          20.4 GVEF065J95
     K22F01O pC2022 03 25.07640713 09 40.52 +11 50 50.9          20.5 GVEF065L01
     K22F01O KC2022 03 25.07765213 09 41.01 +11 50 33.5          20.2 GXEF065I93
     K22F01O pC2022 03 25.07978313 09 38.92 +11 49 58.7          20.6 GVEF065L01
     K22F01O KC2022 03 25.08057113 09 39.63 +11 49 48.4          20.1 GXEF065I93
     K22F01O pC2022 03 25.08186113 09 37.97 +11 49 26.1          20.3 GVEF065L01
     K22F01O KC2022 03 25.08348513 09 38.24 +11 49 04.2          20.0 GXEF065I93
     K22F01O pC2022 03 25.08396113 09 36.92 +11 48 53.9          20.4 GVEF065L01
     K22F01O KC2022 03 25.08429413 09 38.08 +11 48 42.2          20.0 GVEF065J95
     K22F01O pC2022 03 25.08605513 09 35.96 +11 48 21.8          20.4 GVEF065L01
     K22F01O pC2022 03 25.08857213 09 34.79 +11 47 42.9          20.3 GVEF065L01
     K22F01O KC2022 03 25.10255 13 09 28.62 +11 44 08.3          20.4 GVEF065204
     K22F01O 1C2022 03 25.11216 13 09 24.15 +11 41 33.1          20.7 VXEF065033
     K22F01O 1C2022 03 25.11262 13 09 23.94 +11 41 26.4          20.8 VXEF065033
     K22F01O 1C2022 03 25.11308 13 09 23.72 +11 41 18.9          20.7 VXEF065033
     K22F01O 1C2022 03 25.11364 13 09 23.49 +11 41 10.5          20.8 VXEF065033
     K22F01O HC2022 03 25.11587 13 09 22.32 +11 40 43.1                VEF065204
     K22F01O |C2022 03 25.15571 13 09 10.05 +11 32 28.2          20.4 VuEF065807
     K22F01O |C2022 03 25.16051 13 09 07.73 +11 31 14.3          20.8 VuEF065807
     K22F01O |C2022 03 25.16524 13 09 05.48 +11 30 01.4          21.0 VuEF065807
     K22F01O KC2022 03 25.37614 13 07 25.29 +10 33 14.2          20.0 RqEF065H36
     K22F01O KC2022 03 25.38246 13 07 22.22 +10 31 33.4          20.3 RqEF065H36
     K22F01O KC2022 03 25.38879 13 07 19.15 +10 29 53.9          20.1 RqEF065H36
     K22F01O KC2022 03 25.39512 13 07 16.11 +10 28 13.2          19.8 RqEF065H36
     K22F01O 1C2022 03 25.87411 13 03 38.69 +08 17 58.0          20.5 VXEF065033
     K22F01O 1C2022 03 25.87462 13 03 38.47 +08 17 49.9          20.4 VXEF065033
     K22F01O 1C2022 03 25.87514 13 03 38.20 +08 17 41.5          20.4 VXEF065033
     K22F01O KC2022 03 25.87722 13 03 36.88 +08 17 11.2          19.7 RoEF065K88
     K22F01O KC2022 03 25.88050 13 03 35.17 +08 16 16.3          19.5 RoEF065K88
     K22F01O KC2022 03 25.88321313 03 34.65 +08 15 33.6          20.2 GVEF065L06
     K22F01O KC2022 03 25.88378 13 03 33.59 +08 15 21.3          19.7 RoEF065K88
     K22F01O KC2022 03 25.88678413 03 32.89 +08 14 33.6          20.1 GVEF065L06
     K22F01O KC2022 03 25.88886713 03 31.83 +08 13 58.7          20.2 GVEF065L06
     K22F01O KC2022 03 25.88985713 03 31.37 +08 13 42.0          19.6 GVEF065203
     K22F01O KC2022 03 25.94334213 03 04.52 +07 58 47.6                VEF065203
     K22F01O KC2022 03 25.97300013 02 49.91 +07 50 18.1          19.9 GVEF065Z99
     K22F01O KC2022 03 25.97720513 02 47.84 +07 49 07.2          19.9 GVEF065Z99
     K22F01O KC2022 03 25.98207513 02 45.35 +07 47 45.0          20.1 GVEF065Z99

Observer details:
033 Karl Schwarzschild Observatory, Tautenburg.  Observers S. Melnikov, C.
    Hoegner, U. Laux, F. Ludwig, B. Stecklum.  Measurer B. Stecklum.  1.34-m
    f/3 Schmidt + CCD.
203 GiaGa Observatory.  Observers S. Foglia, G. Galli.  Measurer G. Galli.
    0.36-m f/5.76 Schmidt-Cassegrain + CCD.
204 Schiaparelli Observatory.  Observer L. Buzzi.  0.84-m f/3.5 reflector +
    CCD.
807 Cerro Tololo Observatory, La Serena.  Observers T. Linder, R. Holmes, L.
    Horn.  0.61-m f/6.5 astrograph + CCD.
H36 Sandlot Observatory, Scranton.  Observer G. Hug.  0.56-m reflector + CCD.
I93 St Pardon de Conques.  Observer F. Losse.  0.40-m f/3.7 reflector + CCD.
J95 Great Shefford.  Observer P. Birtwhistle.  0.41-m f/6.3 Schmidt-Cassegrain
    + CCD.
K88 GINOP-KHK, Piszkesteto.  Observer K. Sarneczky.  0.60-m Schmidt + CCD.
L01 Visnjan Observatory, Tican.  Observer K. Korlevic.  1.0-m f/2.9 reflector
    + CCD.
L06 Sormano 2 Observatory, Bellagio Via Lattea.  Observer G. Ventre.  Measurer
    P. Sicoli.  0.36-m Schmidt-Cassegrain + CCD.
Z99 Clixby Observatory, Cleethorpes.  Observer A. Mickleburgh.  0.36-m f/8
    Schmidt-Cassegrain + CCD.

Orbital elements:
2022 FO1                                                 Earth MOID = 0.0763 AU
Epoch 2022 Jan. 21.0 TT = JDT 2459600.5                 Veres                   
M 318.60586              (2000.0)            P               Q                  
n   0.47207229     Peri.  202.26330     -0.87219772     +0.48557473             
a   1.6335423      Node     7.63086     -0.35428961     -0.54385161             
e   0.3537366      Incl.   26.40902     -0.33726845     -0.68442867             
P   2.09           H   24.57          G   0.15           U   8                  
Residuals in seconds of arc
220325 K88  0.7-  0.2-    220325 J95  0.3-  0.2+    220325 033  0.1-  0.2-
220325 K88  1.0-  0.2-    220325 L01  0.6-  0.1-    220325 033  0.4+  0.2+
220325 K88  0.3-  0.7-    220325 L01  0.4-  0.3-    220325 033  0.2+  0.4+
220325 K88  0.9-  0.3-    220325 204  0.3+  0.2+    220325 K88  0.1+  0.2-
220325 K88  0.0   1.0-    220325 033  0.1+  0.1+    220325 K88 (1.0-  0.4-)
220325 K88  0.4-  0.0     220325 033  0.1+  0.5+    220325 L06  0.1+  0.9+
220325 K88  0.2+  0.4+    220325 033  0.0   0.1+    220325 K88  0.2-  0.7-
220325 J95  0.2+  0.3-    220325 033  0.5+  0.3+    220325 L06  0.3+  0.4+
220325 J95  0.3-  0.9+    220325 204  0.1-  0.3+    220325 L06  0.0   0.3+
220325 L01  0.4-  0.8+    220325 807  0.3+  0.0     220325 203  0.2-  0.5-
220325 I93  0.0   0.4+    220325 807  0.1+  0.0     220325 203  0.2-  0.1+
220325 L01  0.5-  0.5+    220325 807  0.3+  0.2-    220325 Z99  0.3-  0.4+
220325 I93  0.0   0.0     220325 H36  0.0   0.0     220325 Z99  0.3+  0.4+
220325 L01  0.1-  0.2-    220325 H36  0.0   0.5-    220325 Z99  0.2-  0.3+
220325 I93  0.1-  0.5+    220325 H36  0.0   0.5+
220325 L01  1.0-  0.2-    220325 H36  0.5+  0.4+

Ephemeris:
2022 FO1                 a,e,i = 1.63, 0.35, 26                  q = 1.0557
Date    TT    R. A. (2000) Decl.     Delta      r    Elong.  Phase     V
2022 02 24    14 21 10.9 +46 41 36   0.3209  1.1767   118.4    47.7    24.3
...
2022 03 11    14 09 36.8 +40 20 39   0.1927  1.1218   127.9    44.3    22.9
...
2022 03 19    13 44 52.4 +30 03 15   0.1294  1.0982   140.4    35.3    21.8
...
2022 03 25    13 10 16.8 +12 11 20   0.09132 1.0836   160.5    17.9    20.5
2022 03 26    13 02 35.8 +07 44 08   0.08667 1.0814   165.3    13.5    20.2
2022 03 27    12 54 15.6 +02 48 12   0.08275 1.0793   170.4     8.8    19.9
...
2022 04 02    11 48 58.2 -31 48 33   0.07906 1.0686   150.0    27.9    20.4
...
2022 04 10    09 50 27.8 -59 09 50   0.1191  1.0592   116.0    58.2    22.2
...
2022 04 25    07 12 25.9 -67 28 36   0.2293  1.0575    96.7    70.8    24.0

M. P. C. Staff               (C) Copyright 2022 MPC           M.P.E.C. 2022-F65




More information about the Iaude mailing list